TimeEDT,TemperatureF,Dew PointF,Humidity,Sea Level PressureIn,VisibilityMPH,Wind Direction,Wind SpeedMPH,Gust SpeedMPH,PrecipitationIn,Events,Conditions,WindDirDegrees,DateUTC
12:53 AM,77.0,75.0,94,29.98,10.0,SE,3.5,-,N/A,,Clear,140,2013-06-14 04:53:00
1:40 AM,77.0,75.2,94,29.97,10.0,Calm,Calm,-,N/A,,Mostly Cloudy,0,2013-06-14 05:40:00
1:48 AM,77.0,75.2,94,29.96,10.0,Calm,Calm,-,N/A,,Partly Cloudy,0,2013-06-14 05:48:00
1:53 AM,77.0,75.0,94,29.96,10.0,Calm,Calm,-,N/A,,Partly Cloudy,0,2013-06-14 05:53:00
2:53 AM,77.0,75.0,94,29.95,10.0,Calm,Calm,-,N/A,,Clear,0,2013-06-14 06:53:00
3:53 AM,75.9,73.9,94,29.94,10.0,Calm,Calm,-,N/A,,Clear,0,2013-06-14 07:53:00
4:53 AM,75.9,73.9,94,29.92,9.0,Calm,Calm,-,N/A,,Partly Cloudy,0,2013-06-14 08:53:00
5:53 AM,75.9,73.9,94,29.92,10.0,Calm,Calm,-,N/A,,Clear,0,2013-06-14 09:53:00
6:53 AM,75.9,73.9,94,29.93,9.0,Calm,Calm,-,N/A,,Partly Cloudy,0,2013-06-14 10:53:00
7:53 AM,81.0,73.9,79,29.93,10.0,WSW,5.8,-,N/A,,Partly Cloudy,250,2013-06-14 11:53:00
8:53 AM,82.9,73.9,74,29.95,10.0,West,8.1,-,N/A,,Partly Cloudy,280,2013-06-14 12:53:00
9:53 AM,84.0,73.9,72,29.95,10.0,Variable,5.8,-,N/A,,Partly Cloudy,0,2013-06-14 13:53:00
10:53 AM,84.9,73.0,67,29.96,10.0,West,10.4,-,N/A,,Scattered Clouds,280,2013-06-14 14:53:00
11:53 AM,84.9,75.0,72,29.97,10.0,Variable,5.8,-,N/A,,Scattered Clouds,0,2013-06-14 15:53:00
12:02 PM,84.2,75.2,74,29.97,10.0,West,10.4,-,N/A,,Mostly Cloudy,280,2013-06-14 16:02:00
12:41 PM,84.2,75.2,74,29.97,10.0,WNW,10.4,-,N/A,,Scattered Clouds,300,2013-06-14 16:41:00
12:53 PM,86.0,75.0,70,29.97,10.0,WNW,12.7,-,N/A,,Scattered Clouds,290,2013-06-14 16:53:00
1:53 PM,84.9,73.9,69,29.95,10.0,WNW,12.7,-,N/A,,Clear,290,2013-06-14 17:53:00
2:53 PM,86.0,73.9,67,29.93,10.0,WNW,12.7,-,N/A,,Clear,290,2013-06-14 18:53:00
3:53 PM,84.9,75.0,72,29.93,10.0,West,10.4,-,N/A,,Scattered Clouds,280,2013-06-14 19:53:00
4:53 PM,84.9,73.9,69,29.94,10.0,WNW,12.7,18.4,N/A,,Partly Cloudy,290,2013-06-14 20:53:00
5:53 PM,84.9,73.9,69,29.92,10.0,West,10.4,-,N/A,,Clear,270,2013-06-14 21:53:00
6:53 PM,84.0,75.0,74,29.91,10.0,WNW,6.9,-,N/A,,Clear,290,2013-06-14 22:53:00
7:53 PM,82.0,72.0,71,29.94,10.0,West,6.9,-,N/A,,Clear,270,2013-06-14 23:53:00
8:53 PM,82.0,73.0,74,29.94,10.0,West,8.1,-,N/A,,Clear,280,2013-06-15 00:53:00
9:53 PM,81.0,73.0,77,29.96,10.0,West,4.6,-,N/A,,Clear,270,2013-06-15 01:53:00
10:53 PM,81.0,73.0,77,29.96,10.0,Calm,Calm,-,N/A,,Clear,0,2013-06-15 02:53:00
11:53 PM,80.1,73.9,81,29.97,10.0,West,3.5,-,N/A,,Clear,280,2013-06-15 03:53:00